Weather History for GMAD - February, 2013

Change the Weather History Date:

Thursday, February 28, 2013

  Actual Average Record
Temperature  
Mean Temperature 58 °F -  
Max Temperature 70 °F - - ()
Min Temperature 46 °F - - ()
Degree Days  
Heating Degree Days 7    
Growing Degree Days 8 (Base 50)    
Moisture  
Dew Point 45 °F    
Average Humidity 65    
Maximum Humidity 94    
Minimum Humidity 31    
Precipitation  
Precipitation 0.00 in - - ()
Sea Level Pressure  
Sea Level Pressure 29.90 in    
Wind  
Wind Speed 5 mph ()    
Max Wind Speed 22 mph    
Max Gust Speed -    
Visibility 5.5 miles    
Events      
T = Trace of Precipitation, MM = Missing Value Source: Averaged Metar Reports

Daily Weather History Graph

Daily Weather History Graph

Search for Another Location

Airport or City:

Trip Planner

Search our weather history database for the weather conditions in past years. The results will help you decide how hot, cold, wet, or windy it might be!

Date:

Astronomy

Feb. 28, 2013 Rise Set
Actual Time 7:04 AM WET 6:35 PM WET
Civil Twilight 6:40 AM WET 6:59 PM WET
Nautical Twilight 6:12 AM WET 7:27 PM WET
Astronomical Twilight 5:45 AM WET 7:55 PM WET
Moon 9:30 PM WET (2/28) 8:21 AM WET (2/28)
Length of Visible Light 12h 19m
Length of Day
11h 31m
Waning Gibbous, 92% of the Moon is Illuminated
Feb 28
Waning Gibbous
Mar 4
Last Quarter
Mar 11
New
Mar 19
First Quarter
Mar 27
Full

Hourly Weather History & Observations

Time (WET) Temp. Dew Point Humidity Pressure Visibility Wind Dir Wind Speed Gust Speed Precip Events Conditions
12:00 AM 54 °F 51 °F 84% 29.89 in 6 mi SSW 5.8 mph - -   Partly Cloudy
12:00 AM 53.6 °F 50.0 °F 88% 29.86 in 6.2 mi SSW 5.8 mph - N/A   Scattered Clouds
1:00 AM 55.4 °F 51.8 °F 88% 29.89 in 6.2 mi SW 5.8 mph - N/A   Scattered Clouds
2:00 AM 55.4 °F 50.0 °F 82% 29.89 in 6.2 mi SW 5.8 mph - N/A   Scattered Clouds
3:00 AM 53 °F 48 °F 76% 29.88 in 6 mi South 4.6 mph - -   Partly Cloudy
3:00 AM 53.6 °F 48.2 °F 82% 29.86 in 6.2 mi South 4.6 mph - N/A   Scattered Clouds
4:00 AM 51.8 °F 46.4 °F 82% 29.89 in 3.1 mi Calm Calm - N/A   Scattered Clouds
5:00 AM 50.0 °F 44.6 °F 82% 29.89 in 3.1 mi Calm Calm - N/A   Scattered Clouds
6:00 AM 47 °F 44 °F 86% 29.88 in 3 mi Calm Calm - -   Partly Cloudy
6:00 AM 46.4 °F 44.6 °F 93% 29.86 in 3.1 mi Calm Calm - N/A   Scattered Clouds
7:00 AM 48.2 °F 44.6 °F 87% 29.86 in 6.2 mi SSE 1.2 mph - N/A   Scattered Clouds
8:00 AM 50.0 °F 46.4 °F 87% 29.89 in 5.0 mi Calm Calm - N/A   Scattered Clouds
9:00 AM 50.0 °F 48.2 °F 94% 29.89 in 6.2 mi Calm Calm - N/A   Scattered Clouds
10:00 AM 60.8 °F 51.8 °F 72% 29.95 in 6.2 mi Calm Calm - N/A   Unknown
11:00 AM 60.8 °F 50.0 °F 68% 29.95 in 6.2 mi Calm Calm - N/A   Scattered Clouds
12:00 PM 64 °F 43 °F 35% 29.95 in 6 mi Calm Calm - -  
12:00 PM 64.4 °F 42.8 °F 45% 29.95 in 6.2 mi Calm Calm - N/A   Scattered Clouds
1:00 PM 66.2 °F 39.2 °F 37% 29.92 in 6.2 mi Calm Calm - N/A   Scattered Clouds
2:00 PM 68.0 °F 39.2 °F 35% 29.89 in 6.2 mi West 16.1 mph - N/A   Partly Cloudy
3:00 PM 67 °F 43 °F 31% 29.90 in 6 mi West 19.6 mph - -   Scattered Clouds
4:00 PM 69.8 °F 41.0 °F 35% 29.86 in 6.2 mi West 17.3 mph - N/A   Unknown
5:00 PM 68.0 °F 39.2 °F 35% 29.86 in - West 17.3 mph - N/A   Clear
6:00 PM 62 °F 39 °F 31% 29.88 in 6 mi West 20.7 mph - -  
6:00 PM 62.6 °F 39.2 °F 42% 29.86 in - West 20.7 mph - N/A   Clear
7:00 PM 59.0 °F 41.0 °F 51% 29.89 in - West 21.9 mph - N/A   Clear
8:00 PM 57.2 °F 41.0 °F 55% 29.89 in - WSW 9.2 mph - N/A   Clear
9:00 PM 57.2 °F 41.0 °F 55% 29.92 in - SSW 8.1 mph - N/A   Clear
10:00 PM 53.6 °F 42.8 °F 67% 29.95 in - SSE 9.2 mph - N/A   Clear
11:00 PM 53.6 °F 42.8 °F 67% 29.95 in - SSE 9.2 mph - N/A   Clear